Location: Bagnara
(41.0500°N, 14.7833°E)
Time: 16:23:05
(UTC+00:00)

FALCON 9 DEB - Pass Details

Date: 29 October 2021
Orbit: 344 x 354 km, 53.0° (Epoch: 29 November)

Event Time Altitude Azimuth Distance (km) Brightness Sun altitude
Rises 17:20:08 0° 263° (W) 2,165 8.6 -15.6°
Reaches altitude 10° 17:22:25 10° 279° (W) 1,329 6.8 -16.0°
Maximum altitude 17:24:49 22° 334° (NNW) 850 4.8 -16.5°
Enters shadow 17:26:09 17° 11° (N) 1,027 4.9 -16.7°
